Flag for U.S.A. Weather past 2 weeks in Stamford, Connecticut, U.S.A.

Now
13 °F

Overcast.


Feels Like: 3 °F
Forecast: 14 / 25 °F
Wind: 7 mph from Northwest

Location: Westchester County Airport

Current Time: Feb 27, 2015 at 7:04:36 AM

Latest Report: Feb 27, 2015 at 5:56 AM


Visibility: 10 mi

Pressure: 30.29 "Hg

Humidity: 59%

Dew point: 1 °F

Location of StamfordLocation

Historic Weather in Stamford — Graph

°F

Stamford temperature yesterday

Maximum temperature yesterday: 25 °F (at 2:56 PM)
Minimum temperature yesterday: 17 °F (at 10:56 PM)
Average temperature yesterday: 21 °F

Past Weeks' High & Low Weather Summary

 TemperatureHumidityPressure
High38 °F (Feb 22, 12:56 PM)93% (Feb 21, 8:56 PM)30.52 "Hg (Feb 21, 8:56 PM)
Low-4 °F (Feb 24, 5:56 AM)25% (Feb 16, 4:56 PM)29.41 "Hg (Feb 15, 12:56 AM)
Average17 °F58%30.02 "Hg
* Reported Feb 12 5:56 AM — Feb 27 5:56 AM, Stamford, Weather by CustomWeather, © 2015

Note: Actual official high and low records may vary slightly from our data, if they occured in-between our weather recording intervals... More about our weather records

Advertising

Stamford weather history for previous 24 hours

 ConditionsComfort  
Time TempWeatherWind HumidityBarometerVisibility
5:56 AM
Fri, Feb 27
13 °FOvercast.7 mph59%30.29 "Hg10 mi
4:56 AM13 °FClear.7 mph56%30.26 "Hg10 mi
3:56 AM15 °FPassing clouds.8 mph53%30.24 "Hg10 mi
2:56 AM15 °FClear.8 mph51%30.21 "Hg10 mi
1:56 AM16 °FClear.9 mph49%30.19 "Hg10 mi
12:56 AM16 °FPassing clouds.7 mph51%30.16 "Hg10 mi
11:56 PM
Thu, Feb 26
17 °FPassing clouds.9 mph56%30.16 "Hg10 mi
10:56 PM17 °FClear.7 mph59%30.14 "Hg10 mi
9:56 PM19 °FClear.12 mph62%30.14 "Hg10 mi
8:56 PM20 °FOvercast.9 mph65%30.11 "Hg10 mi
7:56 PM21 °FPassing clouds.9 mph62%30.07 "Hg10 mi
6:56 PM22 °FOvercast.9 mph62%30.06 "Hg10 mi
5:56 PM23 °FOvercast.8 mph63%30.02 "Hg10 mi
4:56 PM24 °FBroken clouds.10 mph60%30.00 "Hg10 mi
3:56 PM24 °FOvercast.8 mph60%29.98 "Hg10 mi
2:56 PM25 °FBroken clouds.9 mph60%29.95 "Hg10 mi
1:56 PM23 °FPartly sunny.10 mph68%29.92 "Hg10 mi
12:56 PM21 °FLight snow. Mostly cloudy.10 mph71%29.94 "Hg1 mi
11:56 AM19 °FLight snow. Mostly cloudy.12 mph74%30.00 "Hg1 mi
10:56 AM20 °FLight snow. Ice fog.8 mph57%30.02 "Hg2 mi
9:56 AM19 °FMostly cloudy.10 mph52%30.02 "Hg10 mi
8:56 AM19 °FMostly cloudy.9 mph52%30.03 "Hg10 mi
7:56 AM18 °FMore clouds than sun.9 mph54%30.03 "Hg10 mi
Weather by CustomWeather, © 2015

See weather overviewHow to use our weather pages